TimeAKDT,TemperatureF,Dew PointF,Humidity,Sea Level PressureIn,VisibilityMPH,Wind Direction,Wind SpeedMPH,Gust SpeedMPH,PrecipitationIn,Events,Conditions,WindDirDegrees,DateUTC
12:55 AM,45.7,27.9,50,29.94,10.0,Calm,Calm,-,N/A,,Partly Cloudy,0,2012-10-04 08:55:00
1:55 AM,45.1,28.4,52,29.93,10.0,Calm,Calm,-,N/A,,Scattered Clouds,0,2012-10-04 09:55:00
2:55 AM,38.8,28.0,65,29.92,10.0,North,4.6,-,N/A,,Partly Cloudy,350,2012-10-04 10:55:00
3:55 AM,33.6,26.6,75,29.91,10.0,North,5.8,-,N/A,,Clear,350,2012-10-04 11:55:00
4:55 AM,38.7,29.1,69,29.89,10.0,North,6.9,-,N/A,,Overcast,350,2012-10-04 12:55:00
5:55 AM,36.5,28.4,72,29.88,10.0,Calm,Calm,-,N/A,,Scattered Clouds,0,2012-10-04 13:55:00
6:55 AM,36.9,28.6,72,29.87,10.0,NNW,5.8,-,N/A,,Partly Cloudy,340,2012-10-04 14:55:00
7:55 AM,37.4,28.9,71,29.86,10.0,North,-9999.0,-,N/A,,Clear,0,2012-10-04 15:55:00
8:55 AM,39.6,31.3,72,29.86,10.0,Calm,Calm,-,N/A,,Mostly Cloudy,0,2012-10-04 16:55:00
9:55 AM,43.7,32.7,65,29.86,10.0,North,-9999.0,-,N/A,,Partly Cloudy,0,2012-10-04 17:55:00
10:55 AM,50.0,34.2,55,29.86,10.0,North,-9999.0,-,N/A,,Mostly Cloudy,0,2012-10-04 18:55:00
11:55 AM,51.4,36.5,57,29.89,10.0,NW,4.6,-,N/A,,Mostly Cloudy,310,2012-10-04 19:55:00
12:55 PM,50.9,37.4,60,29.88,10.0,NW,4.6,-,N/A,,Mostly Cloudy,310,2012-10-04 20:55:00
1:55 PM,52.9,37.6,56,29.90,10.0,Calm,Calm,-,N/A,,Overcast,0,2012-10-04 21:55:00
2:55 PM,53.4,37.9,56,29.89,10.0,NNW,5.8,-,N/A,,Clear,340,2012-10-04 22:55:00
3:55 PM,54.5,38.7,55,29.88,10.0,Calm,Calm,-,N/A,,Clear,0,2012-10-04 23:55:00
4:55 PM,55.6,38.5,53,29.87,10.0,NW,6.9,-,N/A,,Clear,310,2012-10-05 00:55:00
5:55 PM,52.7,39.2,60,29.88,10.0,NNW,3.5,-,N/A,,Clear,340,2012-10-05 01:55:00
6:55 PM,50.4,38.3,63,29.88,10.0,Calm,Calm,-,N/A,,Clear,0,2012-10-05 02:55:00
7:55 PM,46.6,37.8,71,29.89,10.0,Calm,Calm,-,N/A,,Clear,0,2012-10-05 03:55:00
8:55 PM,42.3,36.3,79,29.91,10.0,Calm,Calm,-,N/A,,Clear,0,2012-10-05 04:55:00
9:55 PM,40.1,35.4,83,29.91,10.0,NNW,8.1,-,N/A,,Clear,330,2012-10-05 05:55:00
10:55 PM,38.7,34.3,84,29.93,10.0,South,3.5,-,N/A,,Clear,170,2012-10-05 06:55:00
11:55 PM,38.1,34.2,86,29.95,10.0,Calm,Calm,-,N/A,,Clear,0,2012-10-05 07:55:00